This is the latest recevied weather packets stored in our database for station/object DO1BDB-12. If no packets are shown the sender has not sent any weather packets the latest 10 day(s).
| Time | Temp. | Humidity | Pressure | Rain* | Wind** | Luminosity | Snow |
|---|---|---|---|---|---|---|---|
| 1778244557 | 17.78° C | 40% | 102.2 hPa | - | - | - | - |
| 1778244491 | 16.67° C | 39% | 102.2 hPa | - | - | - | - |
| 1778244426 | 16.67° C | 42% | 102.2 hPa | - | - | - | - |
| 1778244360 | 17.22° C | 41% | 102.1 hPa | - | - | - | - |
| 1778244294 | 17.22° C | 40% | 102.1 hPa | - | - | - | - |
| 1778244228 | 17.22° C | 40% | 102.1 hPa | - | - | - | - |
| 1778244162 | 16.67° C | 41% | 102.2 hPa | - | - | - | - |
| 1778244096 | 16.11° C | 40% | 102.1 hPa | - | - | - | - |
| 1778244030 | 16.11° C | 39% | 102.1 hPa | - | - | - | - |
| 1778243965 | 16.11° C | 42% | 102.1 hPa | - | - | - | - |
| 1778243899 | 17.22° C | 39% | 102.1 hPa | - | - | - | - |
| 1778243833 | 16.11° C | 42% | 102.1 hPa | - | - | - | - |
| 1778243767 | 15° C | 41% | 102.1 hPa | - | - | - | - |
| 1778243701 | 15.56° C | 39% | 102.1 hPa | - | - | - | - |
| 1778243636 | 16.11° C | 40% | 102.2 hPa | - | - | - | - |
| 1778243570 | 15° C | 40% | 102.2 hPa | - | - | - | - |
| 1778243504 | 17.78° C | 38% | 102.1 hPa | - | - | - | - |
| 1778243438 | 16.67° C | 40% | 102.1 hPa | - | - | - | - |
| 1778243372 | 15.56° C | 41% | 102.2 hPa | - | - | - | - |
| 1778243306 | 15° C | 41% | 102.1 hPa | - | - | - | - |
| 1778243241 | 15.56° C | 40% | 102.1 hPa | - | - | - | - |
| 1778243175 | 15.56° C | 38% | 102.1 hPa | - | - | - | - |
| 1778243109 | 16.11° C | 38% | 102.1 hPa | - | - | - | - |
| 1778243043 | 17.78° C | 38% | 102.1 hPa | - | - | - | - |
| 1778242977 | 17.22° C | 39% | 102.1 hPa | - | - | - | - |
* Rain since midnight (hover to see other rain measurements)
** Current wind speed in m/s (hover to see current wind gust speed)